Theta_e
342 336 335 337 339 344 345 346 345 343 342 339 338 338 334 328 326 327 327 327 330 331 331 331 330 329 328 327 326 327 329 331 332 334 336 339 341 340 339 338 337 337 336 337 336 336 335 335 336 337 337 337 338 337 338 339 338 338 338 339 339 339 339 340 341 341 342 341 341 341 340 340 340 340 340 339 339 338 338 337 337 337 337 337 336
341 337 337 337 337 342 345 347 344 343 341 338 338 338 333 328 327 327 327 328 331 332 331 331 330 329 328 327 327 329 332 333 335 335 337 339 340 339 339 338 338 337 337 337 336 336 336 336 336 336 337 337 338 337 337 337 336 337 338 339 340 340 340 341 341 341 341 341 341 340 340 340 341 340 340 339 339 338 338 337 337 337 337 337 336
336 338 338 338 338 341 343 345 344 343 340 338 338 338 333 329 327 327 328 329 332 333 333 331 330 330 328 328 330 332 335 336 337 337 337 339 339 338 339 338 338 337 337 336 336 336 336 336 336 336 337 337 337 337 336 336 337 338 339 339 340 340 340 340 340 341 340 341 340 340 340 340 341 340 339 339 339 338 337 337 337 337 337 336 336
334 337 338 339 340 340 342 344 344 344 340 338 339 338 334 329 327 328 328 331 333 334 335 334 332 331 330 332 334 336 338 338 338 338 337 338 339 339 339 338 337 337 336 336 336 335 336 336 336 336 336 336 336 336 336 336 336 337 339 339 339 339 339 339 339 339 339 339 339 339 339 339 340 340 340 339 338 337 336 336 336 336 336 335 335
334 336 338 341 343 342 343 344 344 343 340 338 339 337 334 330 328 328 329 333 334 335 336 336 335 332 333 335 337 339 339 340 339 337 336 337 339 339 339 338 337 337 336 336 336 336 335 334 335 335 335 336 335 335 336 336 335 335 337 338 338 338 339 340 340 339 339 338 338 338 337 338 339 339 339 338 336 336 335 334 334 334 335 335 333
334 336 337 341 345 345 344 345 344 342 340 339 339 337 335 330 328 329 330 334 336 336 337 337 336 335 337 338 338 339 338 340 340 337 336 337 338 338 338 338 337 336 336 337 337 337 335 332 332 332 332 333 333 334 335 335 334 335 336 337 337 337 338 339 339 339 339 338 337 337 337 338 338 338 337 335 334 334 335 333 333 333 333 334 333
334 336 336 340 347 347 345 345 344 343 341 340 339 337 335 331 328 330 332 335 337 338 338 338 337 336 338 338 338 339 337 340 340 337 336 338 338 338 338 338 337 337 337 338 338 337 335 333 332 330 329 330 332 334 334 334 333 335 335 336 337 336 337 338 338 339 339 338 337 337 337 337 337 337 336 334 334 334 334 333 333 331 332 333 332
337 337 337 341 347 348 346 345 345 344 342 341 339 337 335 331 329 330 334 336 337 339 339 338 337 336 338 338 339 339 338 339 339 336 335 338 339 338 339 338 338 338 338 339 338 337 336 334 333 331 329 328 331 333 333 333 333 334 334 335 335 335 336 336 337 338 337 337 337 336 336 336 336 336 336 335 333 333 333 332 332 330 331 331 331
341 342 340 342 347 348 346 346 345 345 344 342 339 338 335 332 330 332 335 336 338 339 339 338 336 336 337 338 339 339 339 339 338 335 336 339 339 338 338 338 338 338 338 338 338 337 336 336 334 332 330 326 329 333 331 332 332 333 333 333 333 332 333 333 334 335 334 336 335 335 335 335 335 335 335 334 331 330 330 330 330 330 330 330 331
343 344 342 342 347 347 347 347 347 347 345 343 340 338 336 333 331 333 336 337 338 339 339 336 334 334 335 337 337 337 337 338 337 334 337 339 339 338 337 338 338 338 338 338 338 337 337 337 334 332 330 324 325 331 331 331 331 331 331 330 330 330 331 332 333 333 334 335 334 334 334 334 334 335 335 333 331 330 330 329 329 329 329 330 330
344 344 341 341 346 347 347 348 348 347 346 344 341 339 337 334 332 334 336 337 338 339 338 333 333 334 335 336 335 335 335 336 334 334 338 340 340 338 337 339 340 339 338 338 338 338 337 336 334 332 330 323 320 328 330 330 330 329 329 329 330 332 333 333 333 332 333 333 332 332 332 331 332 333 334 332 330 329 330 330 329 329 329 329 329
344 344 340 342 346 347 347 348 347 346 346 345 343 341 338 336 333 333 335 336 338 338 335 332 334 335 335 335 335 334 334 334 333 335 339 339 340 337 336 339 340 339 338 339 338 338 336 334 332 331 330 322 317 324 328 328 328 329 331 331 333 334 334 333 332 331 331 330 330 330 330 330 331 332 332 331 330 329 329 329 329 329 329 329 329
344 343 339 343 346 346 348 347 347 346 346 345 344 343 341 339 335 333 335 336 337 336 333 333 335 334 334 335 336 336 334 335 335 337 338 339 338 336 337 339 339 339 338 338 337 336 334 332 331 329 327 321 317 322 326 327 328 330 332 333 334 334 334 333 331 331 330 329 328 328 329 330 331 331 330 330 329 329 328 329 328 328 328 328 329
345 343 340 343 345 345 346 346 346 346 345 345 343 343 342 340 335 334 336 336 336 334 334 334 334 333 334 336 339 338 335 335 335 337 338 338 338 336 338 340 339 339 338 337 336 334 333 332 331 328 324 320 320 322 325 328 330 332 333 334 335 335 333 332 331 331 330 329 328 328 329 330 330 330 330 330 330 329 328 328 328 328 328 328 328
345 344 342 344 345 343 345 345 345 345 344 344 343 343 341 338 335 335 336 336 335 334 334 334 333 333 335 338 340 339 337 336 335 336 337 337 337 338 339 340 339 338 337 336 335 333 332 332 330 327 322 321 324 325 328 330 332 333 333 334 335 335 333 331 330 329 328 328 329 329 329 329 329 329 330 330 329 329 328 328 328 328 328 328 328
345 343 343 344 344 344 343 343 344 344 344 344 343 341 339 337 335 335 336 337 336 335 335 332 332 334 337 339 339 339 338 337 336 335 336 336 337 338 339 340 339 336 336 335 334 332 333 332 330 327 322 323 329 330 331 332 332 333 333 334 335 336 333 331 330 328 326 326 328 328 328 328 329 329 329 329 328 328 328 328 328 327 327 327 328
345 342 342 343 343 343 342 342 342 343 343 343 341 340 338 336 335 336 338 338 336 335 335 332 332 336 339 340 339 339 339 338 337 335 335 336 338 339 340 339 338 336 335 334 332 332 333 332 330 328 322 323 331 331 332 332 332 333 334 335 335 334 331 330 330 329 327 325 326 328 328 328 328 328 328 328 328 328 327 327 327 327 327 327 327
343 341 342 343 343 343 342 341 341 342 342 342 341 340 338 337 337 338 340 339 337 336 336 333 333 337 339 339 339 338 338 337 336 336 336 336 339 339 340 339 337 336 335 334 332 332 333 332 330 329 324 322 328 331 332 332 333 334 333 334 335 333 331 331 331 330 328 325 326 327 327 327 327 328 328 328 328 328 328 327 327 326 326 326 326
342 341 342 342 342 342 341 340 340 340 341 341 340 340 339 339 338 339 340 339 337 336 337 335 335 337 339 339 339 338 337 337 337 337 336 337 339 339 339 338 337 337 335 334 332 332 332 333 331 329 326 322 325 331 332 332 333 333 332 333 334 333 332 332 331 330 328 325 326 327 327 328 328 328 328 328 328 328 328 327 326 326 326 326 326
342 342 341 339 339 339 340 339 339 339 340 339 339 340 340 339 339 339 340 338 337 337 338 337 337 337 339 339 338 338 338 338 337 337 336 337 338 338 338 338 337 336 335 334 332 331 332 333 332 329 328 327 328 331 332 332 332 332 332 334 334 332 332 332 331 329 325 323 327 328 328 328 328 328 328 327 327 327 327 327 327 327 326 325 325
341 341 340 337 336 337 338 337 337 338 338 338 338 338 338 339 339 339 338 337 337 338 339 339 339 338 338 339 338 337 338 338 337 336 336 337 338 337 338 337 336 335 335 334 332 332 332 333 332 330 330 331 332 332 332 332 332 333 334 335 334 332 332 331 330 327 322 323 327 328 328 328 328 328 328 327 327 327 327 326 326 326 325 325 325
340 341 341 340 338 338 338 337 338 339 337 337 336 335 337 338 338 338 337 337 338 338 339 340 341 339 338 338 337 336 336 335 334 334 335 337 337 337 338 337 335 335 335 334 332 332 331 332 333 331 330 331 332 331 332 333 334 334 334 335 334 332 331 331 331 327 322 324 327 328 328 328 328 328 328 328 327 327 326 326 326 326 325 325 325
339 340 342 340 337 335 335 335 338 338 335 334 333 333 335 336 337 337 336 337 338 339 340 341 341 339 338 338 338 336 335 333 333 333 334 335 336 337 337 335 334 334 334 334 333 332 331 331 332 332 331 330 331 332 333 334 335 335 335 335 334 332 331 331 330 325 323 326 327 327 328 328 328 328 327 327 326 326 326 326 325 324 324 324 324
338 340 341 338 333 331 333 334 335 335 332 331 332 333 332 334 336 337 337 338 339 339 340 340 340 339 339 338 338 337 335 334 334 334 334 334 335 336 336 334 333 333 333 333 333 332 332 331 331 333 333 332 331 332 333 334 335 336 336 335 333 330 330 330 328 323 323 327 328 327 328 328 327 327 327 327 326 326 326 325 325 324 324 324 323
337 338 340 339 336 334 336 336 338 336 331 330 331 331 331 334 336 336 336 338 339 339 339 340 339 339 338 338 338 338 336 336 337 337 335 333 334 335 335 333 331 331 332 333 333 332 331 331 330 331 334 335 335 334 334 335 334 335 337 335 331 330 330 330 328 323 321 325 328 328 328 327 327 328 327 326 326 325 326 325 325 324 323 323 323
337 337 339 340 338 336 336 337 339 339 334 331 330 329 332 334 335 335 335 338 339 339 339 339 338 337 336 337 338 339 337 337 338 337 335 334 334 335 335 332 329 329 331 332 332 332 331 331 330 330 333 335 336 336 336 336 335 334 337 335 331 331 330 330 329 325 323 325 327 327 328 327 327 328 327 326 325 326 325 324 324 324 323 323 324
338 338 339 341 340 338 337 337 339 339 334 330 329 330 333 334 335 336 336 338 339 338 338 338 337 336 336 337 338 338 338 337 338 336 335 334 334 334 332 329 328 328 330 330 330 330 331 331 330 331 332 333 334 336 335 336 336 335 336 334 332 332 331 330 329 327 326 326 326 326 327 329 329 327 327 326 326 325 324 324 324 324 324 323 323
338 339 340 340 340 340 339 339 339 337 333 330 329 331 334 335 337 338 338 338 339 338 338 337 337 336 337 338 338 338 337 336 337 335 335 335 332 331 330 328 328 329 329 329 328 329 330 330 331 331 332 332 333 335 334 334 335 335 335 334 332 332 332 331 330 329 327 327 327 326 325 327 328 327 327 327 326 325 325 325 325 324 324 323 324
340 340 340 340 340 341 340 340 339 337 333 330 329 332 336 337 339 340 339 339 339 339 338 337 337 335 337 338 338 337 336 336 336 335 335 335 334 332 331 330 331 331 331 332 331 330 330 331 332 331 331 331 332 334 335 333 333 334 335 333 332 333 333 332 331 331 328 327 328 326 324 323 324 325 326 326 327 326 326 325 324 323 320 320 321
341 340 340 340 340 340 341 341 339 337 333 330 330 335 338 338 339 340 339 339 339 339 338 337 336 335 336 336 337 337 335 334 335 335 335 335 336 335 333 332 332 332 333 334 333 332 332 332 332 331 331 332 332 333 334 332 332 333 334 332 331 333 333 332 332 332 329 327 328 327 325 323 323 325 326 327 327 325 324 323 323 322 321 320 318
341 340 340 340 340 340 341 341 339 336 332 330 332 336 337 337 339 340 339 339 339 338 338 337 336 336 335 335 336 336 334 333 334 335 335 335 336 335 334 333 333 334 333 334 333 332 333 332 332 332 332 332 332 333 333 331 331 333 332 330 331 333 333 332 332 332 329 327 328 327 326 326 327 328 328 327 326 324 324 324 324 324 323 320 315
341 340 340 340 340 340 340 340 339 336 334 334 335 336 336 336 338 340 339 338 338 337 337 337 336 336 336 335 335 335 334 333 334 334 334 335 335 335 334 334 334 333 332 333 333 333 333 332 332 333 333 332 332 334 333 331 333 333 331 330 331 332 332 332 332 332 330 327 327 328 327 327 328 328 327 325 325 325 326 326 325 322 319 315 313
341 340 340 340 340 340 340 339 339 337 337 337 337 336 336 337 338 338 339 338 337 337 337 336 336 336 336 335 334 335 334 333 333 333 333 335 335 335 335 335 334 333 334 335 334 334 334 333 333 334 334 333 333 335 334 332 333 333 331 330 331 331 332 332 332 332 331 329 328 327 327 327 328 328 325 324 325 327 327 327 325 322 320 319 320
340 340 339 340 339 339 339 339 339 338 338 337 336 337 338 338 337 337 338 339 338 337 336 336 336 336 335 334 333 334 334 333 333 333 333 335 336 336 335 335 334 334 335 336 335 335 335 335 335 335 334 332 332 334 333 332 332 332 332 331 331 331 331 333 332 332 332 330 328 328 328 327 327 327 325 324 326 328 328 328 327 326 325 325 324
340 339 338 338 339 339 339 339 339 338 338 336 337 338 339 339 339 338 339 339 338 338 336 336 336 336 335 334 333 333 334 334 334 334 334 335 335 336 336 335 334 335 335 335 335 335 335 335 335 334 333 332 332 333 333 332 331 332 332 330 330 330 331 332 332 332 332 331 330 329 328 327 327 326 324 325 327 328 328 328 328 328 328 328 326
340 339 338 337 338 339 339 339 339 339 339 337 338 339 339 339 340 339 339 338 337 337 337 336 336 336 335 334 333 333 334 334 333 333 333 333 335 336 336 335 335 335 335 335 335 335 335 335 335 334 333 332 332 333 333 332 332 332 331 330 331 330 330 331 332 332 332 332 331 330 329 328 328 326 323 325 327 327 328 328 328 328 328 329 329
341 338 338 337 338 339 340 340 339 340 340 339 339 339 338 339 339 338 337 336 335 337 338 337 336 335 335 334 333 333 334 334 332 332 333 333 334 335 336 336 336 335 334 335 336 335 335 334 334 333 333 332 331 333 334 332 331 331 331 331 331 331 330 331 332 332 332 332 331 331 330 329 330 326 322 324 327 327 327 327 327 327 328 329 330
341 339 338 338 339 340 340 340 340 340 339 339 339 338 338 338 338 337 336 336 335 336 337 337 336 334 334 333 334 334 334 333 332 332 333 333 334 334 336 336 335 335 335 336 336 335 335 334 334 333 333 332 331 333 333 332 331 331 332 332 332 331 331 331 331 331 331 332 331 330 330 329 330 328 324 325 327 327 327 326 326 327 327 328 330
341 339 338 339 340 340 340 341 340 339 337 337 337 337 338 337 338 337 336 335 335 336 337 337 336 335 334 334 335 335 333 332 333 333 333 334 333 333 334 335 335 335 335 336 335 334 334 335 334 333 332 332 332 333 334 332 331 332 332 332 332 331 331 331 331 330 330 331 330 330 331 330 330 329 326 325 326 326 325 326 327 327 327 328 330
342 340 338 339 340 340 341 341 340 339 336 335 335 336 337 337 337 337 336 336 336 335 336 336 336 336 335 335 335 334 333 333 333 333 334 334 333 333 333 334 336 336 335 335 334 333 334 335 335 333 332 332 333 334 334 332 331 332 332 331 331 331 331 330 330 330 330 329 330 330 330 330 329 329 327 327 327 327 326 327 326 324 324 325 326
341 340 339 339 340 340 340 341 341 338 335 333 334 335 336 336 336 336 335 336 335 335 335 335 336 335 334 334 334 334 334 334 334 334 334 333 333 333 334 335 336 336 335 335 334 334 335 335 335 334 333 332 333 333 332 331 331 331 331 331 331 331 331 331 330 330 330 329 329 329 330 330 329 329 329 329 329 328 328 328 325 323 322 322 324
341 340 339 339 339 339 340 341 340 336 334 333 334 335 336 336 336 335 334 334 334 334 335 335 335 334 333 334 334 335 334 334 335 335 334 333 333 333 334 335 336 335 335 335 334 335 335 335 335 334 333 332 332 332 332 331 332 331 330 330 330 330 330 330 330 330 329 330 329 329 330 330 329 329 329 329 329 329 329 327 325 325 326 325 326
341 341 340 339 339 340 340 341 338 335 335 334 333 335 335 336 336 335 334 334 333 334 335 335 335 334 334 334 335 335 334 335 336 335 335 334 334 334 335 335 336 335 334 335 334 334 335 334 335 334 333 333 332 332 332 332 332 331 330 331 330 330 329 329 330 330 329 329 330 329 329 329 328 328 328 329 329 328 328 327 326 327 328 327 327
340 341 341 339 339 340 340 340 338 335 335 334 332 335 336 335 336 335 334 334 333 335 336 334 334 333 334 334 334 335 335 336 336 334 335 334 333 334 335 334 335 335 334 334 334 334 335 334 334 334 333 334 334 333 333 332 331 330 331 332 330 330 331 329 328 329 329 329 329 329 329 328 328 328 328 328 328 328 327 327 327 327 327 327 327
339 341 341 340 339 340 340 339 338 336 335 333 333 335 336 335 335 335 335 334 334 336 336 334 334 333 334 334 334 335 335 336 336 335 335 334 334 335 335 334 334 335 335 335 334 334 334 333 333 333 333 333 334 333 333 331 330 330 331 332 331 332 332 329 328 329 329 329 330 329 329 328 328 328 328 328 328 328 327 327 327 327 327 327 327
339 341 340 339 339 339 339 339 338 336 334 333 333 336 335 334 335 335 334 334 334 336 335 334 334 334 334 334 334 335 335 335 335 336 335 334 335 336 335 334 334 335 336 335 334 334 333 334 334 333 333 333 332 333 333 331 331 331 330 330 332 333 331 328 329 329 328 329 329 329 329 328 328 327 328 327 327 327 327 326 326 327 327 327 327
339 341 340 339 339 339 339 338 337 335 334 333 334 335 333 333 335 334 333 334 333 334 334 333 334 334 334 334 335 335 335 335 335 335 335 335 336 337 336 335 334 335 335 334 334 334 334 334 334 333 333 333 332 332 332 331 331 331 330 330 330 329 329 328 329 329 329 330 329 329 329 329 328 327 328 327 327 327 327 327 327 327 327 326 326
338 340 339 339 339 339 339 338 337 335 335 333 333 333 333 333 334 334 333 333 333 333 333 333 335 335 335 335 336 336 335 335 334 334 335 335 336 336 336 335 335 334 334 334 334 334 334 334 333 333 333 332 332 332 331 331 331 331 331 331 330 328 328 329 328 328 329 330 329 329 328 329 328 328 328 327 327 327 327 327 327 327 327 326 327
337 339 339 338 338 339 338 337 336 336 335 334 332 333 333 333 335 334 333 333 334 333 333 333 334 335 335 336 336 336 336 335 334 334 334 334 335 335 336 336 335 334 333 334 334 333 333 333 333 332 332 332 332 332 332 332 331 331 331 331 331 329 329 329 328 327 328 329 330 328 327 327 327 327 327 327 326 326 326 326 326 325 326 326 325
335 338 339 338 339 339 338 337 336 336 336 335 333 333 333 333 334 334 334 334 334 333 333 333 333 335 335 336 336 336 336 334 333 334 334 334 334 335 335 335 335 334 334 334 333 333 333 333 332 332 332 332 332 332 332 332 332 331 331 331 332 331 330 329 329 328 327 328 329 327 326 327 327 327 326 326 326 326 325 324 324 324 324 323 321
334 338 338 336 337 337 337 338 337 336 336 335 334 333 332 333 334 334 334 335 335 333 333 333 333 335 335 336 336 336 336 334 334 335 334 334 334 335 335 334 334 334 334 333 332 332 332 333 332 332 332 332 332 332 331 331 331 331 331 331 331 331 330 330 330 329 328 327 328 327 326 327 326 326 326 326 325 325 325 325 324 324 323 322 319
Wind_Speed
22 25 25 23 24 22 21 21 20 23 26 24 23 22 21 21 22 23 23 23 22 21 20 19 19 19 18 18 17 17 18 17 18 18 18 19 19 18 18 18 18 19 19 18 18 17 17 17 18 18 19 20 18 19 20 21 23 23 23 22 22 22 22 23 23 23 23 23 23 24 23 23 22 22 22 21 21 21 21 22 22 22 22 21 20
24 26 25 24 24 22 22 20 20 23 25 24 22 22 21 21 22 23 24 23 22 21 20 19 19 19 19 18 18 18 18 17 17 17 17 18 19 18 18 18 19 19 19 19 18 18 17 17 18 18 18 18 18 18 19 22 25 24 23 23 21 22 23 23 24 24 24 24 24 24 24 23 22 21 22 21 21 21 22 22 21 22 22 21 20
29 26 25 24 24 23 22 21 21 23 24 24 22 22 21 21 22 23 24 23 22 21 20 19 18 19 19 19 19 18 18 17 17 17 17 18 18 18 18 18 19 19 19 19 19 18 17 17 17 17 17 17 17 17 19 23 25 23 22 22 22 23 23 24 24 24 24 24 24 25 25 23 22 22 22 21 21 21 21 20 20 21 20 20 20
30 27 25 24 24 24 22 22 21 23 24 23 22 22 21 21 22 23 23 23 21 21 19 19 18 19 19 19 19 19 18 17 17 17 17 17 18 18 18 18 18 19 19 19 19 18 17 17 16 16 16 16 16 16 19 22 23 23 22 22 23 23 22 24 23 22 23 24 24 25 25 23 21 20 21 20 20 20 19 19 18 18 18 18 18
31 27 26 25 24 24 23 23 22 23 23 23 23 22 21 21 22 23 23 22 21 20 19 19 18 19 19 19 19 19 17 17 17 17 17 18 18 18 17 17 17 17 18 18 18 18 17 16 15 15 15 14 14 17 19 20 21 22 22 23 23 22 22 23 22 21 21 22 23 24 23 22 21 19 19 19 19 19 18 17 16 15 16 16 16
31 28 26 25 25 24 23 23 23 22 22 23 23 22 22 21 22 23 23 22 22 20 18 18 18 18 18 18 18 18 17 18 18 17 18 18 18 17 16 16 17 17 16 17 17 17 16 15 14 13 13 12 15 18 17 18 20 21 21 21 21 21 21 21 20 19 19 21 21 21 21 20 19 17 16 16 16 17 16 16 15 15 15 15 16
30 28 26 26 25 24 24 23 23 22 22 23 23 22 21 21 22 22 22 22 21 19 18 18 18 17 17 18 18 17 16 17 18 17 18 18 17 16 16 16 16 16 15 15 15 16 15 14 13 12 11 13 16 17 16 18 20 19 19 18 17 16 17 17 18 19 19 20 19 18 18 17 17 17 16 15 15 15 16 16 15 15 15 16 16
27 27 26 26 25 24 24 23 23 22 22 23 23 22 22 21 22 22 22 22 21 18 17 17 16 16 17 18 17 16 16 16 17 17 18 18 15 15 16 16 16 14 13 13 13 14 14 13 12 11 11 12 16 16 16 18 18 18 17 15 14 12 12 12 12 14 13 15 18 16 17 16 17 17 16 15 14 13 14 15 16 15 16 16 16
24 23 24 26 25 24 23 22 22 22 22 23 23 22 22 21 22 22 22 22 20 17 17 16 16 17 17 17 16 16 16 16 16 16 18 16 14 15 16 15 15 13 13 13 12 12 12 12 11 11 10 11 15 16 16 17 16 15 14 12 11 10 8 8 6 7 9 13 18 17 17 17 17 17 15 13 13 13 14 15 17 17 17 16 16
23 21 21 24 25 24 23 22 22 22 22 22 23 22 22 21 22 22 22 22 19 17 17 16 16 17 16 16 15 15 15 15 15 17 18 15 15 15 15 14 13 12 13 12 12 11 11 10 10 9 9 9 13 16 16 15 13 12 11 10 9 9 10 16 14 13 16 18 18 16 15 16 16 15 13 12 13 15 17 17 17 18 17 17 17
22 20 19 23 24 23 23 22 22 21 21 21 21 22 22 21 22 21 22 21 18 17 16 16 17 16 15 15 15 15 14 15 15 17 18 16 15 14 13 14 13 12 12 11 11 10 10 9 8 8 8 8 12 16 15 13 12 11 10 9 10 12 15 20 21 20 20 19 17 17 15 15 15 14 13 12 13 16 17 18 18 17 17 17 17
21 19 18 23 23 22 22 22 22 20 20 20 20 21 21 21 21 21 22 20 17 16 16 17 17 16 15 16 16 16 15 16 17 18 17 16 15 13 12 13 12 12 11 11 9 8 8 7 6 7 7 8 12 15 14 13 12 11 12 13 14 17 19 20 20 19 18 17 17 18 18 17 16 14 13 12 13 16 17 18 18 17 17 17 17
22 18 19 24 23 22 23 22 21 19 19 20 20 20 20 20 20 21 22 19 16 16 17 17 16 16 17 18 17 16 16 18 19 18 17 15 13 12 12 11 12 11 10 9 8 7 7 6 7 8 8 9 12 14 15 14 13 12 13 14 16 18 19 20 18 16 15 15 16 16 18 18 15 14 14 15 15 16 17 17 18 17 17 17 17
23 19 22 25 22 22 22 21 21 20 20 20 20 20 19 19 20 22 21 18 17 17 17 16 16 17 18 18 17 16 17 18 18 17 16 14 13 13 11 11 12 11 9 8 8 7 7 7 8 9 10 10 13 15 15 14 13 12 13 14 16 17 18 18 15 13 12 12 14 15 17 16 15 15 15 15 16 16 16 17 17 17 17 17 16
22 21 24 25 23 22 21 21 21 20 19 20 20 20 20 20 21 23 20 18 18 18 17 16 17 18 18 17 15 16 17 18 17 17 16 14 14 13 12 11 11 9 8 8 8 7 7 8 10 11 11 13 16 17 15 13 13 13 13 15 17 17 17 18 15 14 14 13 15 16 17 16 15 15 14 15 15 15 16 16 16 16 17 16 15
22 23 26 26 23 22 21 21 21 20 20 20 20 21 21 21 22 22 20 19 19 18 17 17 19 19 18 16 15 16 18 18 16 16 15 14 13 12 12 11 10 9 8 8 8 8 8 9 10 12 12 15 18 17 15 13 13 13 14 16 19 18 17 19 17 16 16 16 16 16 16 16 15 14 14 15 15 15 15 15 15 15 16 15 14
23 25 28 25 23 23 22 21 20 20 20 19 20 22 22 21 22 21 20 20 19 18 17 18 19 19 18 16 15 16 18 18 15 14 13 13 12 12 12 11 9 8 8 8 8 8 9 9 10 12 13 16 18 16 14 14 13 14 15 18 20 20 21 19 18 16 16 17 17 17 15 15 14 14 14 14 14 14 15 15 15 15 15 14 14
25 27 28 26 24 23 22 22 20 20 20 19 19 21 21 21 21 21 20 19 18 18 18 19 19 18 17 17 16 16 17 16 14 12 12 12 12 12 12 10 9 9 9 8 8 8 9 10 10 12 14 15 16 15 14 14 14 15 17 21 21 20 20 18 17 15 14 15 16 17 15 15 15 14 14 14 14 14 14 14 14 14 14 13 13
29 30 29 26 25 24 24 23 22 21 20 19 18 19 20 20 20 20 19 18 18 18 18 19 19 18 17 16 16 16 15 14 13 11 11 12 12 13 12 10 9 9 9 8 8 8 8 10 10 12 14 15 16 15 14 14 15 17 19 22 22 19 15 14 14 13 12 13 15 16 15 15 15 14 14 14 13 13 13 13 13 13 13 13 13
31 31 29 27 26 26 25 23 21 20 20 19 17 18 18 19 19 19 18 18 18 18 18 18 18 16 16 16 16 16 15 14 12 11 11 12 13 13 12 10 8 8 9 9 9 8 9 10 11 12 15 17 17 16 15 15 16 16 17 19 18 16 13 12 11 11 12 14 16 17 15 14 13 13 13 13 13 13 13 13 13 13 12 13 13
29 30 28 27 26 25 23 21 20 20 20 19 18 19 18 19 20 18 17 17 18 18 17 17 17 16 16 16 17 17 16 15 13 11 11 12 12 11 11 10 8 8 9 9 9 8 9 10 11 13 16 18 18 17 15 15 15 14 15 17 15 15 13 11 11 12 13 15 17 16 14 13 13 13 13 12 12 12 12 13 13 12 13 13 14
25 26 25 26 24 23 21 19 20 21 21 21 20 21 20 20 20 19 18 18 17 17 17 17 18 18 17 16 16 16 16 15 13 12 12 12 12 11 11 10 8 9 10 9 9 9 9 9 10 12 14 16 15 15 14 14 13 13 14 16 13 15 13 11 11 12 13 15 16 15 14 13 13 13 13 12 11 11 12 12 12 12 13 13 13
23 24 28 28 25 26 25 24 25 25 24 23 23 23 22 21 21 21 20 19 18 17 18 18 19 19 18 16 16 16 16 15 14 12 12 12 12 11 10 10 9 10 10 10 10 9 8 9 10 10 12 13 13 12 13 12 12 12 12 14 12 15 12 11 12 13 15 15 15 14 14 13 12 12 12 11 11 11 11 12 11 12 13 13 14
22 27 31 31 31 35 34 34 34 32 31 28 27 26 24 23 23 22 21 20 20 19 20 20 21 20 19 18 17 16 16 15 14 13 12 12 12 11 10 9 10 11 11 11 10 9 9 9 9 9 11 11 10 10 10 10 11 9 8 10 11 14 11 11 13 14 16 15 13 13 13 12 12 12 12 11 11 11 11 11 12 13 13 13 13
20 24 31 34 34 36 34 33 34 34 35 34 32 30 27 25 24 23 21 22 22 21 22 23 22 21 20 19 18 17 16 15 15 14 13 13 13 12 10 9 9 11 12 11 11 11 9 9 8 9 10 9 8 8 6 5 6 4 4 9 12 12 10 11 13 14 15 15 13 12 12 11 12 11 11 11 11 11 11 11 12 12 13 13 13
25 26 32 37 36 35 35 34 33 34 34 35 34 32 30 28 26 24 23 23 23 23 24 24 23 22 21 20 20 18 16 17 17 15 14 14 14 12 11 9 8 10 11 11 11 12 10 9 8 8 8 6 6 6 5 2 1 1 1 9 15 12 12 12 12 13 14 14 13 12 10 10 11 11 10 10 11 11 10 11 11 11 12 12 12
33 31 32 36 37 36 37 36 36 35 34 34 34 33 32 29 27 26 25 24 24 25 25 26 25 23 22 21 20 19 18 18 17 16 15 14 12 10 9 7 7 10 11 10 10 11 11 9 8 8 7 3 3 6 5 2 4 3 2 6 14 13 13 13 12 12 12 12 13 12 10 10 10 10 10 11 10 10 10 10 11 11 11 11 11
35 34 33 36 38 37 37 37 37 36 35 35 34 34 33 31 28 27 26 26 27 27 27 27 26 24 21 20 21 20 19 19 17 16 15 13 10 9 9 8 8 10 10 9 9 9 11 10 9 9 5 3 4 7 6 4 5 5 4 4 9 12 13 13 12 11 10 11 12 11 10 10 9 10 10 10 10 10 10 10 10 9 9 10 10
29 32 32 34 35 37 37 37 38 37 36 35 34 34 33 31 30 29 28 27 28 28 28 28 27 24 21 20 21 20 20 19 18 16 15 13 10 9 9 8 8 9 9 8 8 8 9 10 11 8 5 6 6 7 10 7 6 7 5 4 5 12 15 14 11 9 10 11 12 11 10 10 10 10 10 10 10 9 9 9 9 8 9 10 10
24 29 31 31 32 35 37 37 38 36 35 34 32 32 32 32 31 30 29 27 28 27 27 28 26 24 22 21 21 21 21 20 18 16 16 14 11 10 10 9 8 8 7 5 6 6 6 9 10 7 6 7 6 8 10 8 6 7 5 4 6 13 16 13 9 8 11 12 12 11 10 11 11 10 10 9 9 8 8 8 8 9 9 9 9
22 26 28 28 30 33 35 35 35 34 34 33 30 28 30 31 30 30 29 28 28 26 26 27 25 23 22 22 21 21 20 19 18 17 17 15 12 12 12 11 9 9 8 6 7 7 6 8 8 7 7 5 6 10 10 8 5 5 4 5 9 12 13 11 8 9 11 12 11 11 10 11 11 10 9 9 8 8 9 9 9 9 9 8 9
21 24 27 29 29 31 33 32 31 31 31 31 29 27 28 29 29 30 29 28 28 26 25 25 24 23 22 21 20 21 20 19 18 18 17 15 13 12 12 11 10 10 10 9 10 9 7 8 7 7 6 3 8 12 9 7 6 7 8 9 10 12 11 10 9 10 11 11 11 10 10 11 11 10 9 9 9 9 9 9 9 10 11 11 12
20 23 26 29 29 30 31 29 29 29 29 30 29 25 27 28 28 29 27 27 26 25 25 23 23 22 21 21 20 21 21 19 18 17 17 15 13 12 11 11 11 11 10 10 11 10 8 8 8 6 5 7 12 13 9 8 8 10 12 13 12 12 12 12 11 11 11 12 12 11 10 11 11 10 10 12 13 12 10 10 11 12 13 14 14
20 21 25 28 29 30 29 27 28 27 27 29 28 25 27 27 27 28 26 25 24 23 23 22 22 22 22 22 21 21 21 20 19 18 17 15 13 12 12 12 12 11 10 11 11 11 8 8 8 6 7 9 12 13 10 8 8 11 14 13 12 11 11 12 12 11 12 12 13 12 11 10 10 10 11 14 14 13 11 11 12 12 13 13 13
20 20 24 25 27 29 28 27 28 26 25 29 28 25 27 28 28 28 26 24 23 22 22 22 22 23 24 24 22 21 21 21 19 18 17 16 14 14 13 11 11 11 10 11 12 11 9 8 8 7 9 10 12 14 11 9 9 11 14 12 9 9 10 10 11 12 13 14 14 13 12 11 9 9 12 16 15 13 12 10 9 9 10 10 10
21 21 23 22 24 27 27 27 27 25 26 30 29 25 27 29 28 28 26 23 22 23 22 23 23 24 25 24 22 21 21 20 18 17 15 15 15 15 13 10 11 12 10 11 12 10 10 9 6 7 9 10 13 16 14 12 11 11 13 12 10 10 11 11 11 13 14 14 16 15 13 12 9 7 13 17 15 13 11 8 7 6 7 7 7
20 20 23 23 22 25 26 27 28 25 27 30 29 27 28 30 27 27 26 23 23 23 23 24 24 25 26 25 21 19 20 19 17 17 15 15 15 15 14 11 11 12 10 11 11 9 9 9 7 6 8 9 13 17 17 14 12 11 12 13 12 11 12 12 12 13 15 16 17 17 14 13 10 8 12 15 14 13 9 7 6 6 6 6 5
20 20 23 23 22 24 24 27 27 24 26 27 25 25 26 26 25 25 25 23 23 23 23 23 24 25 26 24 20 18 18 18 17 17 15 15 15 15 15 12 11 11 11 10 9 9 8 9 9 7 7 10 14 17 17 16 15 13 11 12 12 12 12 12 13 12 13 15 17 17 15 14 12 9 11 14 13 11 8 7 5 4 5 5 5
23 21 22 22 20 22 24 26 26 23 25 23 22 25 24 23 23 23 24 24 22 21 22 22 23 24 24 22 19 17 18 18 17 16 15 15 14 15 15 13 11 11 12 10 9 9 9 10 10 9 9 11 14 17 17 18 19 16 12 11 13 15 13 12 12 12 12 14 17 18 16 15 14 12 12 13 11 8 7 6 4 4 5 5 5
24 22 22 23 21 22 23 25 25 22 22 20 22 26 24 24 25 22 23 24 22 21 21 22 22 23 22 20 19 18 17 16 16 16 15 14 14 14 14 14 12 12 12 11 10 10 11 11 10 11 12 13 15 17 16 18 21 18 14 13 13 13 12 11 12 12 12 13 15 18 16 15 16 14 12 12 10 8 6 6 5 5 5 6 5
24 22 22 24 24 24 24 25 26 21 16 18 25 28 24 25 26 24 24 23 22 23 22 21 22 22 21 20 19 18 17 15 15 15 13 13 13 13 14 15 14 13 13 11 10 11 12 12 11 11 12 14 16 17 18 21 22 18 15 14 12 10 10 11 11 12 13 13 14 17 16 15 16 14 13 12 10 8 7 7 7 6 6 6 6
25 25 24 26 26 26 25 25 25 19 14 19 26 25 19 18 19 22 25 22 21 23 22 22 22 21 21 21 20 19 18 16 14 14 12 11 12 13 17 16 14 14 13 11 11 13 13 13 13 12 11 14 16 17 18 17 16 15 14 11 8 8 8 9 10 11 13 13 13 16 16 16 16 14 13 12 10 8 8 9 9 7 7 7 7
27 28 26 27 27 27 26 24 25 21 17 21 22 17 15 14 13 16 22 23 21 22 20 20 20 18 19 20 19 19 18 16 15 14 13 12 12 15 18 17 15 15 14 12 13 13 13 12 14 14 14 15 15 16 16 11 12 17 14 7 3 4 5 5 7 9 11 11 12 14 15 15 14 12 12 12 11 9 9 10 10 8 7 7 7
28 28 27 28 26 26 25 23 25 22 20 23 17 14 18 18 16 15 16 19 21 21 18 19 20 17 17 19 19 19 18 16 16 15 15 15 16 18 17 17 16 14 14 14 14 14 13 12 13 14 15 17 17 16 13 11 15 17 9 3 2 3 2 3 5 6 9 10 10 13 14 14 14 12 11 11 11 11 10 11 11 10 8 8 9
28 27 28 29 26 26 24 23 25 21 21 22 16 16 21 19 20 18 14 13 16 19 20 20 20 17 17 19 19 18 17 17 18 18 18 16 16 17 15 16 16 14 14 14 14 14 14 13 13 14 15 16 17 16 12 13 18 15 8 5 4 1 2 5 6 4 6 8 8 11 13 13 13 12 12 12 13 12 12 13 14 12 11 11 12
25 26 28 30 28 28 25 23 24 22 21 21 17 18 21 19 21 22 17 14 14 17 19 20 20 19 19 19 18 17 16 17 19 19 18 16 16 15 14 15 17 15 14 14 14 13 13 14 14 14 14 14 16 16 14 15 15 12 9 8 5 4 8 10 5 2 3 6 7 9 11 12 12 12 13 14 13 12 12 13 14 14 14 14 13
24 26 29 30 28 28 27 24 24 22 22 22 19 21 22 20 20 21 17 15 17 21 21 21 21 20 19 19 18 16 15 17 17 16 16 15 17 16 14 16 17 16 14 13 14 13 13 14 14 14 14 13 15 17 16 15 14 11 9 7 4 8 18 14 6 4 3 3 6 8 10 11 12 12 12 13 13 12 12 15 16 16 15 14 13
26 28 29 30 28 28 28 27 26 24 22 21 21 23 26 26 24 23 19 16 22 26 23 23 22 20 19 18 17 15 14 15 14 15 16 15 17 17 16 15 15 15 15 14 13 13 14 15 14 13 13 12 13 16 18 16 15 13 10 8 5 12 18 12 11 13 5 2 5 5 8 10 11 12 12 13 14 13 14 16 17 16 15 13 12
24 24 27 29 27 28 29 29 28 25 24 23 25 26 28 29 26 25 22 17 20 22 21 22 23 22 20 19 17 16 15 14 13 16 17 16 17 17 17 16 13 14 16 15 14 14 13 14 15 14 13 13 13 15 16 16 15 14 13 11 10 13 13 10 14 16 8 5 4 3 7 8 7 10 12 13 14 13 14 16 16 15 14 13 11
16 16 23 27 27 27 27 29 30 27 27 28 29 29 29 28 26 24 23 19 18 19 20 21 23 22 20 19 18 17 17 16 16 17 16 14 15 16 16 16 14 14 15 15 15 14 13 13 15 15 14 13 14 14 15 14 13 14 15 14 14 14 12 9 12 13 10 8 5 5 10 10 7 9 12 13 13 13 14 15 16 15 14 12 11
9 8 14 19 22 23 24 27 30 29 29 29 29 29 28 27 26 26 25 22 20 22 22 22 22 21 20 19 19 19 19 19 18 18 16 15 15 15 14 14 13 13 13 13 14 13 13 14 15 15 15 13 13 14 14 15 14 13 15 16 17 17 15 12 14 16 13 9 7 7 10 12 11 13 14 13 13 15 16 16 17 17 15 12 10
Wind_Direction
155 156 154 157 156 156 156 155 152 150 151 152 150 146 141 142 141 138 137 133 130 127 125 123 120 118 117 115 113 110 106 103 99 96 96 99 98 95 92 88 84 83 85 85 85 85 87 85 80 77 77 80 83 89 91 93 94 91 89 88 89 92 94 95 95 93 92 91 92 92 92 91 89 89 88 88 88 88 87 87 87 86 84 84 84
157 154 154 157 158 157 156 156 154 151 152 153 151 147 143 144 144 141 139 135 132 129 126 124 122 119 117 115 112 110 106 103 100 99 100 100 98 95 94 91 86 84 84 84 84 85 88 86 81 80 81 82 83 87 93 96 94 91 88 88 90 92 93 93 93 93 91 90 91 91 91 90 88 89 90 89 88 87 85 85 85 84 83 83 83
156 154 155 157 158 159 158 158 155 153 154 154 152 149 145 146 146 144 141 136 133 130 127 124 124 121 118 115 112 110 106 104 102 102 103 101 98 98 98 94 89 86 84 83 82 83 87 87 82 81 82 84 86 88 95 99 98 94 91 89 90 91 91 90 89 90 91 91 91 91 89 88 87 88 89 88 86 84 83 82 82 82 83 82 82
156 154 153 156 158 158 159 158 156 155 156 155 153 150 147 148 148 146 143 138 135 131 128 126 126 122 118 116 113 110 107 107 105 104 104 103 101 100 101 97 93 89 85 83 82 82 86 87 83 81 83 86 89 97 103 105 107 104 100 95 91 90 91 91 89 89 92 93 91 88 86 85 85 86 87 86 83 81 80 80 81 82 82 82 82
154 154 153 154 156 158 158 157 157 156 157 156 155 152 149 149 149 148 144 139 136 132 129 128 126 123 119 117 115 112 111 111 108 104 103 103 104 104 104 101 97 92 87 84 82 81 83 84 84 84 86 88 92 105 111 113 114 111 109 104 98 95 94 93 92 91 90 92 91 87 84 82 83 83 84 82 80 79 78 77 78 81 82 80 79
153 153 153 153 155 157 157 157 157 157 158 158 156 154 150 150 150 148 145 141 138 134 129 129 127 123 120 119 117 114 115 115 111 106 104 104 106 108 107 104 101 96 90 86 84 82 79 76 80 82 86 93 99 109 117 119 118 114 112 108 104 101 98 96 95 96 92 88 88 87 84 82 80 78 78 78 82 84 82 80 80 82 83 81 78
151 151 152 153 154 156 158 157 157 158 158 158 157 154 151 150 150 149 147 143 139 134 131 131 129 125 123 123 119 116 117 117 114 110 109 109 113 114 109 106 104 98 92 89 87 83 78 74 74 74 82 100 109 114 120 119 117 115 113 109 106 101 97 96 95 97 95 90 89 90 89 85 81 79 77 78 85 88 87 86 85 85 85 83 79
145 148 150 151 153 156 158 157 159 159 157 158 157 154 152 151 151 150 148 145 140 134 132 132 131 129 127 126 121 119 121 122 120 114 114 118 121 116 109 108 106 100 95 92 90 84 80 78 74 69 74 101 117 121 122 119 115 115 113 111 108 102 101 97 100 96 86 94 95 93 95 91 85 82 81 84 87 88 90 89 85 85 86 85 84
139 142 148 150 152 155 157 157 158 157 156 157 155 154 152 152 151 151 149 146 141 134 133 133 134 134 133 131 126 124 126 127 123 119 123 126 123 114 110 109 107 102 98 94 91 86 83 81 80 77 74 97 122 127 124 120 116 117 114 113 108 101 92 68 89 96 79 103 102 94 96 93 88 84 84 86 85 84 88 87 83 83 85 86 85
136 141 148 148 149 154 156 155 155 153 153 154 154 154 153 152 152 152 151 147 141 136 136 136 138 140 140 138 135 133 132 130 127 128 131 128 119 113 110 109 107 104 100 97 92 90 89 85 83 84 80 93 123 133 129 124 120 121 116 110 94 74 58 59 85 107 103 110 105 96 96 94 92 86 84 84 84 84 85 85 84 84 87 90 88
136 143 148 147 148 153 154 153 152 150 151 153 153 154 153 153 153 154 153 149 142 139 139 141 143 145 145 142 141 139 136 133 132 135 134 128 121 118 116 114 113 109 106 101 98 97 93 86 79 80 83 93 121 135 135 130 122 116 105 90 71 61 62 77 96 106 108 110 102 94 87 87 90 87 86 83 84 87 87 87 87 88 90 91 91
139 145 146 144 147 152 151 150 148 148 151 152 153 153 154 155 156 157 156 151 144 142 143 148 148 148 148 144 141 138 138 135 134 136 133 129 125 126 125 122 120 114 110 106 102 98 92 83 74 76 84 95 115 134 138 131 120 106 92 77 68 66 73 90 102 102 103 103 98 94 86 83 86 86 85 84 87 89 89 89 88 90 91 92 92
138 142 143 143 146 149 147 146 144 147 151 150 153 153 154 157 158 159 157 152 147 148 149 152 150 145 147 145 140 139 138 136 137 138 135 133 129 132 130 125 124 116 112 106 99 90 84 73 69 77 89 101 116 133 139 132 120 103 88 73 66 67 78 95 104 102 97 94 95 97 92 88 86 84 82 85 90 90 90 90 89 91 90 92 94
137 141 143 142 142 145 144 144 143 146 150 150 154 155 156 157 159 160 156 151 149 152 154 154 148 145 148 146 143 143 142 139 140 141 141 140 135 138 134 127 124 117 113 102 94 87 78 70 72 79 92 108 120 131 137 131 116 96 78 66 62 68 86 99 103 101 95 92 94 96 94 91 88 85 85 88 90 90 92 91 90 91 91 93 94
139 141 139 138 138 142 142 142 144 147 151 153 156 157 159 158 160 161 157 154 153 155 156 154 148 147 151 149 147 147 147 144 142 145 150 148 141 143 136 129 126 119 113 101 98 92 81 77 80 84 97 116 124 130 132 120 101 83 71 64 60 71 99 107 103 98 92 94 98 99 99 95 91 90 90 88 89 90 92 92 91 92 93 91 91
137 136 134 133 135 137 138 141 145 150 154 156 158 158 159 160 161 162 159 156 156 157 156 154 151 152 153 152 149 149 151 150 148 150 155 153 147 146 137 131 132 126 115 105 106 98 85 86 90 89 105 124 128 130 122 105 91 80 72 64 57 74 109 113 102 94 90 96 100 100 101 99 95 94 92 88 90 91 91 91 91 94 94 91 90
131 130 129 130 135 136 137 141 147 153 156 158 158 159 161 162 162 162 160 158 158 158 158 157 156 157 156 153 150 149 150 153 153 153 156 155 151 147 139 136 139 130 119 112 111 102 92 95 97 94 108 130 133 128 112 98 89 79 71 62 62 89 114 113 102 95 93 96 98 98 99 99 96 93 93 91 92 91 92 92 91 93 95 93 91
127 126 125 128 134 138 142 145 151 156 156 157 157 160 162 163 163 162 161 160 159 161 163 161 160 162 159 154 151 149 149 154 155 154 159 157 153 149 140 142 146 132 119 119 119 106 97 102 106 99 106 131 136 123 108 97 88 78 72 66 75 103 115 108 101 96 92 93 99 103 98 97 96 94 95 94 92 93 94 93 92 94 97 95 93
126 123 124 131 139 144 150 153 157 158 155 154 156 160 163 164 165 164 163 162 163 166 167 166 166 167 163 158 154 152 151 156 158 160 163 158 154 149 145 150 150 136 124 125 126 111 102 107 113 105 105 126 134 122 108 97 88 85 78 72 84 106 109 101 95 87 88 95 101 102 99 101 101 98 97 96 94 94 93 93 92 92 94 92 92
122 124 128 139 148 153 155 157 158 155 153 152 153 158 163 168 169 168 167 166 169 170 169 170 171 170 167 162 159 158 158 162 166 169 167 161 156 151 152 158 155 140 128 132 134 118 108 110 117 113 109 119 125 121 110 101 95 91 84 75 86 106 107 97 84 77 87 98 101 98 99 102 100 99 99 99 97 94 94 96 95 93 93 91 89
117 128 136 145 151 153 154 155 156 153 153 153 155 159 165 171 172 170 170 171 171 173 173 172 173 174 172 168 165 163 164 168 172 172 167 162 159 156 156 160 161 143 129 136 143 130 116 112 118 120 117 118 120 120 113 106 99 91 82 72 87 112 108 91 78 77 89 100 104 102 102 100 98 99 99 100 99 98 98 98 96 93 92 90 89
120 130 135 140 142 142 148 153 154 155 157 159 160 164 170 173 173 172 173 173 171 176 178 175 176 177 175 172 168 166 166 171 172 172 169 163 161 160 160 163 162 147 135 141 150 142 127 117 118 124 128 126 124 123 117 109 98 86 73 62 89 123 113 91 79 81 92 100 105 107 105 100 98 99 100 102 101 98 96 97 98 97 96 93 91
120 135 138 143 148 151 160 166 163 163 164 164 166 169 172 173 174 174 174 173 171 176 176 175 177 177 176 173 170 167 168 171 170 170 169 164 163 161 164 172 166 153 147 150 159 152 137 128 122 122 132 134 132 127 118 110 95 83 64 54 99 132 117 96 86 89 98 99 101 105 104 101 102 102 102 101 97 97 96 98 100 100 99 95 94
125 146 151 156 165 168 172 172 168 166 166 166 168 170 171 172 174 174 174 173 171 172 172 172 175 176 175 173 170 167 169 169 166 166 167 163 162 162 167 176 169 161 161 162 167 165 151 140 132 122 125 132 136 131 120 113 97 82 45 45 107 133 115 99 90 92 101 102 102 102 105 105 104 103 102 101 98 99 99 98 96 96 97 95 95
140 158 166 168 172 173 172 172 169 166 165 166 167 168 168 170 172 173 176 176 174 171 171 172 174 175 174 173 171 168 168 166 166 167 167 165 164 166 170 176 174 170 171 170 172 175 166 153 144 128 122 123 124 124 122 122 98 78 17 53 105 127 111 102 92 93 102 106 108 107 109 109 106 107 106 107 105 102 100 98 97 98 99 96 94
149 170 178 173 174 174 173 174 171 169 168 167 168 167 166 169 171 173 178 179 178 174 173 175 175 175 173 174 173 171 170 168 170 169 167 168 169 172 176 182 184 176 175 173 173 177 174 162 152 136 130 125 122 134 141 176 199 224 314 85 105 117 110 104 92 96 103 103 109 112 113 111 110 111 107 105 104 104 104 103 101 97 98 96 97
154 173 180 173 176 177 177 177 173 173 172 171 169 166 166 169 170 175 181 179 178 177 176 177 178 177 174 175 175 174 173 171 169 166 165 167 168 174 172 171 174 170 170 169 167 175 177 168 161 146 137 129 150 166 161 203 225 218 221 109 107 113 114 107 93 98 103 101 105 109 113 114 113 112 109 109 107 107 105 102 100 98 99 97 99
157 170 174 172 178 178 179 178 175 176 174 174 170 166 168 169 171 177 182 180 178 179 178 179 181 179 176 176 179 178 176 173 167 163 163 160 157 159 149 136 145 155 158 155 150 160 169 165 160 152 154 185 177 185 187 195 214 207 198 151 113 109 117 111 96 96 99 100 102 105 114 121 124 118 113 113 109 106 102 101 102 104 105 102 103
158 166 170 172 177 178 179 178 176 176 175 175 171 168 170 171 172 177 181 181 180 179 179 181 182 182 179 177 180 181 178 173 167 164 161 156 156 158 153 146 144 151 156 152 147 150 158 161 160 161 178 185 171 186 196 199 220 212 192 184 121 105 119 122 112 107 101 103 107 107 112 118 123 118 116 116 112 111 110 112 112 108 105 107 110
160 163 168 171 175 176 178 178 177 176 174 175 174 171 172 173 174 178 181 181 181 180 180 182 182 183 182 181 182 184 184 177 169 166 162 163 172 178 181 184 180 175 170 168 172 167 167 167 167 176 181 185 190 185 191 208 228 214 192 177 131 111 126 137 135 125 109 108 114 116 116 114 115 113 114 117 118 119 116 113 111 105 101 102 106
164 161 166 171 174 175 176 177 177 175 173 175 178 175 175 176 176 179 182 182 183 180 179 181 180 183 183 183 184 185 187 181 173 170 168 171 181 186 187 191 194 188 179 176 179 177 176 170 172 186 187 195 192 176 188 211 206 193 173 143 134 126 137 153 152 134 116 114 122 124 123 118 118 120 124 129 125 116 109 107 107 108 109 108 106
167 164 167 172 174 176 175 177 176 172 172 176 179 178 179 179 177 180 182 184 185 182 181 181 181 183 184 185 187 189 187 182 179 177 175 178 180 181 182 184 183 179 178 176 175 176 175 174 181 189 185 163 148 157 179 193 166 141 120 109 134 152 161 165 157 141 127 125 129 130 131 128 129 134 135 130 121 110 106 107 108 109 109 106 101
166 168 170 173 175 175 175 177 175 170 173 177 178 180 179 178 178 180 181 183 185 184 184 185 184 183 183 185 188 190 188 184 183 181 179 177 173 175 177 178 177 175 179 180 176 174 171 173 187 187 162 137 130 139 158 166 154 140 124 108 125 158 173 168 159 151 142 138 137 137 140 138 140 143 133 122 116 112 112 112 109 107 105 104 102
162 167 172 176 176 176 176 175 173 171 175 178 180 181 178 176 178 180 181 184 187 187 186 186 186 182 180 183 187 190 187 183 181 180 180 176 170 171 175 178 178 178 180 182 177 171 166 166 182 183 155 143 127 129 146 152 153 146 134 127 132 158 178 167 160 161 156 150 146 143 143 144 146 146 134 126 123 121 126 125 117 114 110 108 107
161 167 172 175 177 177 176 173 172 171 175 179 180 182 178 175 178 181 181 185 190 190 188 186 184 181 180 184 189 188 182 180 180 179 179 176 171 167 171 178 179 180 180 178 175 171 171 168 176 174 149 141 127 127 138 140 142 138 128 135 159 181 187 175 169 170 167 159 155 153 147 144 145 145 141 136 132 137 145 141 127 125 123 120 118
166 170 171 171 173 176 176 173 171 171 176 180 179 181 180 177 179 182 181 184 189 189 190 188 183 180 181 186 188 183 180 181 181 182 181 178 176 166 162 171 174 178 178 173 175 176 179 170 167 172 150 136 129 126 129 131 132 130 123 130 157 172 176 176 175 172 172 168 164 162 153 147 145 142 147 144 141 147 150 138 123 120 123 130 134
168 171 172 168 166 172 177 175 173 176 180 181 179 180 179 176 179 180 179 182 185 187 189 186 183 181 182 186 185 182 184 185 184 186 184 178 177 166 157 163 170 173 174 174 179 182 186 177 162 170 160 145 142 132 126 130 129 124 127 133 146 164 171 170 171 170 174 174 170 168 159 155 156 143 147 149 146 148 144 131 124 117 117 124 136
165 170 170 166 165 171 176 178 178 178 181 182 177 175 174 173 176 178 176 178 181 184 187 185 183 183 182 182 180 181 186 187 188 189 186 180 176 167 159 164 173 173 173 179 189 184 181 179 162 153 154 150 151 141 129 128 124 123 134 140 146 159 163 162 166 168 170 171 170 171 166 161 163 154 148 151 149 145 141 135 130 125 121 115 122
161 166 164 162 166 173 178 184 182 178 183 183 169 167 171 170 171 174 173 173 177 179 184 186 185 183 181 180 178 179 186 188 190 189 185 183 182 173 163 166 179 179 177 181 189 183 171 168 157 140 137 140 144 143 135 126 119 124 136 136 135 141 147 154 165 168 167 169 168 171 171 165 166 163 156 158 155 149 146 139 132 133 131 125 127
159 160 161 165 171 176 181 188 186 182 185 178 160 163 169 167 166 168 169 171 174 174 178 185 187 184 182 183 183 183 187 188 188 187 181 181 185 176 166 173 184 180 178 182 184 179 167 161 156 146 140 138 139 142 142 131 120 121 125 123 124 129 138 152 165 167 163 166 169 172 173 166 166 166 162 165 162 157 152 140 135 133 132 135 135
155 159 162 171 177 181 184 188 190 187 183 170 161 167 174 171 166 163 164 167 172 172 174 183 186 186 186 186 187 188 188 187 188 187 179 178 181 174 173 183 184 176 176 182 182 173 164 157 151 151 149 144 143 145 145 134 122 119 119 117 116 115 126 145 155 157 155 157 164 170 170 164 164 166 167 170 165 155 148 139 133 125 122 124 121
156 166 169 174 180 185 185 186 187 184 178 172 170 175 182 178 169 161 158 160 173 178 175 180 182 184 188 188 188 188 187 185 187 187 177 173 180 179 182 184 178 176 178 178 179 174 169 165 154 151 155 151 151 153 151 140 128 130 126 115 108 102 107 128 140 147 152 154 157 164 167 163 164 168 169 170 165 153 148 143 132 119 115 112 109
168 175 175 175 180 184 184 183 182 178 177 176 173 178 178 176 173 162 159 160 172 181 179 178 178 181 186 187 188 186 183 183 188 193 181 172 189 191 184 182 177 180 183 177 179 179 175 175 165 156 155 151 154 162 163 157 144 137 129 122 131 112 94 108 128 139 151 156 156 161 166 165 166 168 164 162 157 147 144 148 141 129 120 112 113
173 175 175 174 177 179 180 184 183 179 178 175 176 178 168 170 174 163 164 166 165 171 174 177 180 183 185 184 187 185 182 182 187 197 191 181 194 196 186 184 182 185 189 180 178 180 176 176 170 164 163 154 152 163 173 174 158 147 135 122 146 140 122 123 118 127 151 158 158 160 163 163 162 162 157 155 151 142 141 148 147 140 128 118 122
173 172 171 170 173 177 181 189 185 178 174 173 183 179 158 161 170 159 160 172 163 159 161 167 176 185 187 183 185 186 183 184 188 195 195 188 192 194 190 191 189 187 190 184 179 180 180 179 171 169 175 167 159 160 164 170 168 164 158 143 142 151 165 151 132 118 149 155 158 162 160 159 159 157 152 148 146 140 139 147 149 142 130 125 128
170 169 171 172 174 176 179 184 181 177 173 169 179 176 158 158 164 155 156 166 162 159 160 165 173 184 190 185 185 187 184 185 190 194 192 189 192 196 193 194 193 190 192 191 186 182 180 181 177 174 178 178 173 165 159 165 171 176 175 169 203 217 163 153 147 111 140 153 157 158 156 155 156 152 146 144 144 140 138 146 150 144 137 135 135
164 168 172 173 174 173 172 174 173 175 176 170 169 168 165 169 165 156 163 173 170 169 173 176 178 185 191 187 187 188 185 184 189 193 191 190 195 197 190 191 195 195 195 191 187 186 181 181 184 183 180 178 180 174 168 171 173 178 177 168 228 197 162 154 159 149 137 159 159 156 160 158 154 150 146 145 145 144 147 149 149 147 148 147 142
166 169 168 169 171 170 166 166 166 171 177 174 169 169 172 176 172 164 169 190 187 175 175 180 178 181 186 186 185 184 185 185 186 190 193 192 194 193 188 191 198 196 191 184 183 186 184 183 184 185 183 178 181 180 173 173 176 175 169 150 150 171 166 162 162 153 134 138 151 152 166 163 159 158 154 154 153 153 155 154 153 154 157 156 151
170 167 164 164 167 167 163 161 162 167 176 180 177 178 180 179 176 169 169 191 196 179 176 181 178 178 182 183 183 181 182 186 188 190 190 191 190 189 187 190 194 188 186 185 184 186 188 189 185 180 182 177 179 183 175 175 181 175 167 157 152 162 172 174 160 151 141 148 150 144 163 165 169 167 159 158 162 161 157 155 158 162 162 162 163
168 162 165 161 160 164 162 160 163 170 180 187 185 183 186 184 177 173 173 183 189 180 180 182 179 180 181 182 183 182 182 184 188 187 185 186 186 186 187 187 186 183 183 183 182 185 187 186 180 175 177 176 176 183 181 181 186 181 172 168 164 163 165 166 161 156 149 148 142 149 164 166 167 171 166 163 168 172 167 157 155 161 164 162 163
151 141 155 154 153 158 164 167 171 177 185 191 192 189 189 186 178 176 178 180 181 179 178 178 180 183 183 182 181 180 180 181 181 179 179 179 176 176 180 179 178 180 183 180 178 182 180 176 174 172 175 177 176 180 184 181 181 182 182 181 176 171 168 172 170 161 154 149 139 147 165 164 161 170 174 170 170 176 178 171 163 164 166 161 158